DateTimeUTC,F1_A11,F1_S11,BsB_S11,BsG_S11,BsR_S11,BbsB_S11,BbsG_S11,BbsR_S11,BaB_A11,BaG_A11,BaR_A11,Tu_S11,T_S11,Uu_S11,U_S11,P_S11,T1_A11
2021-06-10T10:00:00Z,00000200,20000000,,,,,,,-000.13,-000.21,0000.17,17.6,24.4,04.6,03.0,0663.2,31.0
2021-06-10T10:01:00Z,00000200,20000000,,,,,,,0000.20,0000.32,0000.06,17.6,24.4,04.6,03.0,0663.2,31.0
2021-06-10T10:02:00Z,00000200,20000000,,,,,,,0000.02,-000.08,-000.12,17.6,24.4,04.6,03.0,0663.2,31.0
2021-06-10T10:03:00Z,00000200,60000000,,,,,,,0000.14,0000.53,0000.31,17.6,24.4,04.6,03.0,0663.2,31.0
2021-06-10T10:04:00Z,00000200,40000000,0001.37,0000.66,0000.13,0000.80,0000.23,0000.31,0000.83,0000.64,0000.42,17.7,24.2,04.8,03.2,0664.1,31.0
2021-06-10T10:05:00Z,00000200,00000000,0000.40,0000.36,0000.59,0000.45,0000.15,0000.36,0000.36,0000.38,0000.52,17.7,24.2,04.8,03.3,0664.2,31.0
2021-06-10T10:06:00Z,00000200,00000000,0001.27,0000.59,0000.22,0000.81,0000.23,0000.10,0000.50,0000.37,0000.11,17.8,24.2,04.9,03.3,0664.2,31.0
2021-06-10T10:07:00Z,00000200,00000000,0000.85,0000.40,0000.37,0000.21,0000.09,0000.16,0000.15,0000.05,0000.02,17.7,24.1,04.9,03.3,0664.2,31.0
2021-06-10T10:08:00Z,00000200,00000000,0000.49,0000.50,0000.44,0000.10,0000.10,0000.16,0000.59,0000.57,0000.24,17.7,24.1,05.0,03.4,0664.2,31.0
2021-06-10T10:09:00Z,00000200,00000000,0000.41,0000.50,0000.06,0000.20,0000.19,0000.17,0000.03,-000.18,-000.10,17.7,24.1,05.0,03.4,0664.1,31.0
2021-06-10T10:10:00Z,00000200,00000000,0000.68,0000.19,0000.11,0000.35,0000.10,0000.42,0000.41,0000.17,0000.48,17.7,24.1,05.1,03.4,0664.2,31.0
2021-06-10T10:11:00Z,00000200,00000000,0001.22,0000.58,0000.29,0000.40,0000.26,0000.34,-000.15,0000.48,0000.03,17.7,24.1,05.0,03.4,0664.2,31.0
2021-06-10T10:12:00Z,00000200,00000000,0001.16,0000.67,0000.23,0000.40,0000.16,0000.27,0000.19,0000.16,0000.20,17.7,24.1,05.1,03.4,0664.2,31.0
2021-06-10T10:13:00Z,00000200,00000000,0000.38,0000.62,0000.26,0000.69,0000.01,0000.03,0000.59,0000.23,0000.72,17.7,24.1,05.0,03.4,0664.2,31.0
2021-06-10T10:14:00Z,00000200,00000000,0000.16,0000.46,0000.47,0000.27,0000.44,0000.28,0000.06,0000.02,-000.33,17.7,24.1,05.1,03.5,0664.2,31.0
2021-06-10T10:15:00Z,00000200,00000000,0001.18,0000.36,0000.25,0000.39,0000.14,0000.13,0000.31,0000.52,0000.53,17.7,24.1,05.1,03.5,0664.2,31.0
2021-06-10T10:16:00Z,00000200,00000000,0001.80,0000.53,0000.45,0000.08,0000.27,-000.03,0000.42,0000.07,0000.24,17.7,24.1,05.0,03.4,0664.2,31.0
2021-06-10T10:17:00Z,00000200,00000000,0000.90,0000.45,0000.44,0000.37,0000.28,0000.14,0000.01,-000.06,-000.29,17.7,24.1,05.0,03.4,0664.2,31.0
2021-06-10T10:18:00Z,00000200,00000000,0000.81,0000.41,0000.59,-000.01,0000.21,0000.11,-000.07,0000.13,-000.07,17.7,24.1,04.9,03.3,0664.2,31.0
2021-06-10T10:19:00Z,00000200,00000000,0001.01,0000.45,0000.35,0000.46,0000.03,0000.04,0000.35,-000.02,0000.44,17.7,24.1,04.9,03.3,0664.2,31.0
2021-06-10T10:20:00Z,00000200,00000000,0000.98,0000.62,0000.44,0000.85,0000.19,0000.05,0000.13,0000.36,0000.06,17.7,24.1,05.0,03.4,0664.2,31.0
2021-06-10T10:21:00Z,00000200,00000000,0001.41,0000.42,0000.40,0000.42,0000.24,0000.02,0000.52,0000.28,0000.41,17.7,24.1,04.9,03.3,0664.2,31.0
2021-06-10T10:22:00Z,00000200,00000000,0000.70,0000.53,0000.42,0000.36,0000.15,0000.11,-000.27,-000.13,-000.13,17.7,24.1,04.8,03.2,0664.2,31.0
2021-06-10T10:23:00Z,00000200,00000000,0000.78,0000.30,0000.21,0000.64,0000.14,0000.12,0000.16,0000.31,-000.08,17.7,24.1,04.8,03.2,0664.2,31.0
2021-06-10T10:24:00Z,00000200,00000000,0000.49,0000.36,0000.25,0000.17,0000.21,0000.06,0000.41,-000.18,0000.06,17.7,24.1,04.8,03.2,0664.2,31.0
2021-06-10T10:25:00Z,00000200,00000000,0000.16,0000.09,0000.47,0000.60,0000.09,0000.14,-000.22,0000.20,-000.06,17.7,24.1,04.8,03.2,0664.2,31.0
2021-06-10T10:26:00Z,00000200,00000000,0000.53,0000.22,0000.38,0000.88,0000.10,0000.18,0000.24,0000.50,0000.24,17.7,24.1,04.8,03.2,0664.2,31.0
2021-06-10T10:27:00Z,00000200,00000000,-000.36,0000.13,0000.12,0000.45,0000.12,0000.09,0000.11,-000.59,0000.22,17.6,24.1,04.7,03.1,0664.2,31.0
2021-06-10T10:28:00Z,00000200,00000000,0001.14,0000.07,0000.40,0000.52,0000.17,0000.33,0000.47,0000.60,0000.11,17.6,24.1,04.7,03.2,0664.2,31.0
2021-06-10T10:29:00Z,00000200,00000000,0000.70,0000.37,0000.32,0000.86,0000.25,0000.09,-000.20,0000.10,0000.24,17.6,24.1,04.7,03.2,0664.2,31.0
2021-06-10T10:30:00Z,00000200,00000000,0000.68,0000.51,0000.35,0000.49,0000.01,0000.19,0000.12,0000.16,-000.05,17.6,24.0,04.7,03.2,0664.1,31.0
2021-06-10T10:31:00Z,00000200,00000000,0000.98,0000.37,-000.01,-000.07,-000.01,0000.26,0000.31,0000.09,0000.17,17.6,24.0,04.8,03.2,0664.2,31.0
2021-06-10T10:32:00Z,00000200,00000000,0000.42,0000.47,0000.37,0000.07,0000.28,0000.20,0000.15,0000.50,0000.15,17.6,24.0,04.7,03.2,0664.2,31.0
2021-06-10T10:33:00Z,00000200,00000000,0000.97,0000.48,0000.37,0000.66,0000.15,0000.11,0000.41,0000.19,-000.35,17.6,24.0,04.7,03.2,0664.2,31.0
2021-06-10T10:34:00Z,00000200,00000000,0001.74,0000.59,0000.27,0000.32,0000.09,0000.18,-000.15,-000.25,0000.19,17.6,24.0,04.6,03.1,0664.2,31.0
2021-06-10T10:35:00Z,00000200,00000000,0001.87,0000.47,0000.59,0000.68,0000.10,0000.29,-000.18,-000.21,0000.33,17.6,24.0,04.5,03.0,0664.2,31.0
2021-06-10T10:36:00Z,00000200,00000000,0000.75,0000.48,0000.46,0000.52,0000.05,0000.31,-000.08,-000.12,-000.05,17.6,24.0,04.4,03.0,0664.2,31.0
2021-06-10T10:37:00Z,00000200,00000000,0001.41,0000.64,0000.41,0000.26,0000.24,0000.19,0000.40,0000.45,0000.15,17.6,24.0,04.3,02.9,0664.2,31.0
2021-06-10T10:38:00Z,00000200,00000000,0001.38,0000.51,0000.21,0000.11,-000.02,0000.28,0000.22,0000.60,-000.08,17.6,24.0,04.3,02.9,0664.2,31.0
2021-06-10T10:39:00Z,00000200,00000000,0001.75,0000.37,0000.34,0001.36,0000.43,0000.38,0000.26,-000.23,0000.30,17.6,24.0,04.3,02.9,0664.1,31.0
2021-06-10T10:40:00Z,00000200,00000000,0000.23,0000.55,0000.61,0000.28,0000.17,0000.45,0000.08,-000.07,0000.12,17.5,24.0,04.2,02.8,0664.1,31.0
2021-06-10T10:41:00Z,00000200,00000000,0001.24,0000.66,0000.22,0000.09,0000.12,0000.13,0000.24,0000.73,-000.03,17.5,24.0,04.1,02.8,0664.1,30.9
2021-06-10T10:42:00Z,00000200,00000000,0001.55,0000.44,0000.26,0000.91,0000.12,0000.32,0000.16,-000.21,0000.15,17.5,24.0,04.0,02.7,0664.1,30.9
2021-06-10T10:43:00Z,00000200,00000000,0001.36,0000.38,0000.22,0000.99,0000.43,0000.02,0000.48,0000.15,0000.49,17.5,24.0,04.1,02.8,0664.1,31.0
2021-06-10T10:44:00Z,00000200,00000000,0001.77,0000.50,0000.20,0000.52,0000.28,-000.00,-000.08,0000.58,-000.00,17.5,24.0,04.1,02.8,0664.1,31.0
2021-06-10T10:45:00Z,00000200,00000000,0000.83,0000.52,0000.38,0000.87,0000.52,0000.10,0000.47,-000.33,0000.12,17.5,24.0,04.0,02.7,0664.2,31.0
2021-06-10T10:46:00Z,00000200,00000000,0001.33,0000.45,0000.11,0000.51,0000.42,0000.10,0000.16,0000.50,0000.12,17.5,24.0,04.1,02.7,0664.2,31.0
2021-06-10T10:47:00Z,00000200,00000000,0000.03,0000.23,0000.39,0000.92,-000.07,0000.30,0000.21,0000.65,0000.67,17.5,24.0,04.0,02.7,0664.2,31.0
2021-06-10T10:48:00Z,00000200,00000000,0000.79,0000.14,0000.50,0000.13,-000.16,0000.30,0000.32,0000.04,-000.23,17.5,23.9,04.2,02.8,0664.2,31.0
2021-06-10T10:49:00Z,00000200,00000000,0001.63,0000.55,0000.37,0000.46,-000.00,0000.37,0000.25,0000.35,0000.36,17.5,24.0,04.1,02.7,0664.1,31.0
2021-06-10T10:50:00Z,00000200,00000000,0000.59,0000.52,0000.49,0000.60,0000.10,0000.14,0000.10,-000.07,-000.10,17.5,24.0,04.1,02.8,0664.1,31.0
2021-06-10T10:51:00Z,00000200,00000000,0001.01,0000.49,0000.24,-000.25,0000.17,0000.53,0000.19,-000.10,-000.14,17.5,24.0,04.2,02.8,0664.1,30.9
2021-06-10T10:52:00Z,00000200,00000000,0000.76,0000.32,0000.01,0000.39,0000.17,0000.22,-000.09,0000.07,0000.35,17.5,23.9,04.0,02.7,0664.1,30.9
2021-06-10T10:53:00Z,00000200,00000000,0000.98,0000.28,0000.32,0000.44,0000.24,0000.06,0000.13,0000.11,-000.38,17.5,23.9,04.0,02.7,0664.1,30.9
2021-06-10T10:54:00Z,00000200,00000000,0000.35,0000.50,0000.29,0000.56,0000.11,0000.04,0000.38,0000.39,0000.42,17.4,23.9,03.9,02.7,0664.1,30.9
2021-06-10T10:55:00Z,00000200,00000000,0000.63,0000.51,0000.16,0000.43,0000.16,0000.07,0000.01,-000.23,0000.23,17.4,23.9,04.0,02.7,0664.1,30.9
2021-06-10T10:56:00Z,00000200,00000000,0000.41,0000.15,0000.16,0000.73,0000.47,0000.18,0000.35,0000.33,0000.33,17.4,23.9,03.9,02.6,0664.1,30.9
2021-06-10T10:57:00Z,00000200,40000000,,,,,,,0000.54,0000.56,0000.15,17.5,23.9,03.6,02.4,0664.1,30.9
2021-06-10T10:58:00Z,00000200,60000000,,,,,,,-000.48,-000.36,0000.10,17.2,24.0,04.1,02.7,0663.1,30.9
2021-06-10T10:59:00Z,00000200,20000000,,,,,,,-000.09,-000.06,-000.43,17.2,24.1,04.0,02.6,0663.1,30.9
